User: anonymous   Login
Location: Spradlin Observatory
(33.4706°N, 86.3221°W)
Time: 09:17:36
(UTC-06:00)
Language:

COSMOS 2406 - Orbit

View from above orbital plane
View from above orbital plane
View from above satellite
View from above satellite

Ground track
Ground track

The orbit data is extracted from the following two-line orbital elements,

1 28352U 04021A   17023.69193993 -.00000206  00000-0 -87128-4 0  9999
2 28352  71.0017  66.4113 0014896 317.0894  42.9063 14.11607651650455
Epoch (UTC): 23 January 2017 16:36:23
Eccentricity: 0.0014896
inclination: 71.0017°
perigee height: 843 km
apogee height: 864 km
right ascension of ascending node: 66.4113°
argument of perigee: 317.0894°
revolutions per day: 14.11607651
mean anomaly at epoch: 42.9063°
orbit number at epoch: 65045

The dashed part of the orbit path shows where the satellite is in the earth's shadow,  

DLR